KC4KQE Weather Reports


Display with metric or nautical units.
time (UTC)temp
F
wind
direction
speed
MPH
gust
MPH
rain 1hr
in
rain 24hr
in
rain mn
in
humidity
%
barometer
mb
20180722095908 83 41 1.0 2.0 0.00 0.07 0.00 45 1014.5
20180722070408 87 41 2.0 4.0 0.00 0.07 0.00 35 1014.8
20180722062908 89 44 1.0 3.0 0.00 0.07 0.00 34 1014.9
20180722061408 89 44 1.0 3.0 0.00 0.07 0.00 34 1014.9
20180722054408 89 330 2.0 2.0 0.00 0.07 0.00 34 1014.7
20180722051908 90 325 1.0 3.0 0.00 0.07 0.00 33 1014.7
20180722050908 91 324 0.0 3.0 0.00 0.07 0.00 32 1014.8
20180722050408 91 324 1.0 5.0 0.00 0.07 0.00 32 1014.7
20180722043408 92 298 3.0 3.0 0.00 0.07 0.00 34 1014.6
20180722034408 93 292 4.0 9.0 0.00 0.07 0.00 35 1013.8
20180722030408 95 287 5.0 6.0 0.00 0.07 0.00 32 1013.2
20180722023408 95 288 5.0 9.0 0.00 0.07 0.00 31 1013.1
20180722003908 99 261 7.0 11.0 0.00 0.07 0.00 29 1012.3
20180722002908 99 245 5.0 11.0 0.00 0.07 0.00 29 1012.3
20180722002408 99 231 7.0 11.0 0.00 0.07 0.00 29 1012.2
20180722001408 99 236 7.0 14.0 0.00 0.07 0.00 28 1012.2
20180721231908 99 248 6.0 11.0 0.00 0.07 0.00 30 1012.6
20180721223408 100 242 13.0 14.0 0.00 0.07 0.00 30 1012.9
20180721222408 98 224 10.0 13.0 0.00 0.07 0.00 31 1013.0
20180721215408 99 288 7.0 8.0 0.00 0.07 0.00 31 1013.2
20180721212408 97 281 6.0 13.0 0.00 0.07 0.00 33 1013.6
20180721210408 96 261 8.0 22.0 0.00 0.07 0.00 34 1013.8
20180721201908 96 334 4.0 12.0 0.00 0.07 0.00 34 1014.4
20180721194408 95 0 9.0 14.0 0.00 0.07 0.00 35 1014.8
20180721193908 94 286 5.0 14.0 0.00 0.07 0.00 37 1014.8
20180721191908 94 252 7.0 14.0 0.00 0.07 0.00 37 1015.1
20180721190408 93 238 2.0 10.0 0.00 0.07 0.00 36 1015.3
20180721175908 89 269 5.0 7.0 0.00 0.07 0.00 49 1016.0
20180721175408 88 31 3.0 6.0 0.00 0.07 0.00 49 1016.0
20180721143908 81 148 0.0 5.0 0.00 0.07 0.00 66 1015.9
20180721142908 81 169 4.0 5.0 0.00 0.07 0.00 67 1015.7
20180721130908 81 188 2.0 3.0 0.00 0.07 0.00 67 1014.9
20180721124908 81 173 3.0 3.0 0.00 0.07 0.00 66 1014.6
20180721124408 81 157 0.0 4.0 0.00 0.07 0.00 67 1014.4
20180721123908 81 148 3.0 3.0 0.00 0.07 0.00 67 1014.4
20180721113908 79 219 3.0 4.0 0.07 0.07 0.00 77 1013.6
20180721105908 90 125 10.0 15.0 0.00 0.00 0.00 42 1013.4